Owosso, MI

1:26 PM EDT on March 27, 2017 (GMT -0400)
Owosso

Weather History for KRNP - June, 2013

Change the Weather History Date:

Saturday, June 15, 2013

  Actual Average (KFNT) Record (KFNT)
Temperature  
Mean Temperature 66 °F -  
Max Temperature 77 °F 77 °F 93 °F (1954)
Min Temperature 56 °F 57 °F 41 °F (1999)
Cooling Degree Days 2    
Growing Degree Days 16 (Base 50)    
Moisture  
Dew Point 59 °F    
Average Humidity 74    
Maximum Humidity 93    
Minimum Humidity 53    
Precipitation  
Precipitation 0.00 in - - ()
Sea Level Pressure  
Sea Level Pressure 30.01 in    
Wind  
Wind Speed 3 mph (SW)    
Max Wind Speed 13 mph    
Max Gust Speed 17 mph    
Visibility 10 miles    
Events      
Averages and records for this station are not official NWS values.
T = Trace of Precipitation, MM = Missing Value Source: NWS Daily Summary

Daily Weather History Graph

Daily Weather History Graph

Search for Another Location

Airport or City:

Trip Planner

Search our weather history database for the weather conditions in past years. The results will help you decide how hot, cold, wet, or windy it might be!

Date:

Astronomy

Jun. 15, 2013 Rise Set
Actual Time 5:56 AM EDT 9:17 PM EDT
Civil Twilight 5:21 AM EDT 9:52 PM EDT
Nautical Twilight 4:35 AM EDT 10:38 PM EDT
Astronomical Twilight 3:38 AM EDT 11:35 PM EDT
Moon 12:39 PM EDT (6/15) 12:44 AM EDT (6/15)
Length of Visible Light 16h 31m
Length of Day
15h 20m
Waxing Crescent, 39% of the Moon is Illuminated
Jun 15
Waxing Crescent
Jun 16
First Quarter
Jun 23
Full
Jun 30
Last Quarter
Jul 8
New

Hourly Weather History & Observations

Time (EDT) Temp. Dew Point Humidity Pressure Visibility Wind Dir Wind Speed Gust Speed Precip Events Conditions
12:15 AM 63.0 °F 54.7 °F 74% 30.04 in 10.0 mi Calm Calm - N/A   Clear
12:35 AM 61.0 °F 55.4 °F 82% 30.04 in 10.0 mi Calm Calm - N/A   Clear
12:54 AM 60.6 °F 54.9 °F 81% 30.04 in 10.0 mi Calm Calm - N/A   Clear
1:15 AM 59.5 °F 54.3 °F 83% 30.04 in 10.0 mi Calm Calm - N/A   Clear
1:35 AM 59.5 °F 53.8 °F 81% 30.04 in 10.0 mi Calm Calm - N/A   Clear
1:54 AM 58.5 °F 54.3 °F 86% 30.04 in 10.0 mi Calm Calm - N/A   Clear
2:15 AM 59.7 °F 53.6 °F 80% 30.04 in 10.0 mi Calm Calm - N/A   Clear
2:35 AM 59.5 °F 53.8 °F 81% 30.04 in 10.0 mi SW 3.5 mph - N/A   Clear
2:55 AM 59.2 °F 53.8 °F 82% 30.04 in 10.0 mi SSW 4.6 mph - N/A   Clear
3:15 AM 59.5 °F 53.8 °F 81% 30.05 in 10.0 mi SSW 3.5 mph - N/A   Clear
3:35 AM 59.4 °F 54.0 °F 82% 30.05 in 10.0 mi Calm Calm - N/A   Clear
3:55 AM 59.4 °F 53.8 °F 82% 30.05 in 10.0 mi Calm Calm - N/A   Clear
4:15 AM 57.6 °F 53.2 °F 85% 30.05 in 10.0 mi Calm Calm - N/A   Clear
4:35 AM 56.8 °F 54.0 °F 90% 30.05 in 10.0 mi Calm Calm - N/A   Clear
4:55 AM 57.2 °F 54.5 °F 91% 30.04 in 10.0 mi Calm Calm - N/A   Clear
5:15 AM 57.2 °F 54.9 °F 92% 30.04 in 10.0 mi Calm Calm - N/A   Clear
5:34 AM 57.2 °F 55.2 °F 93% 30.04 in 10.0 mi Calm Calm - N/A   Clear
5:55 AM 57.9 °F 55.6 °F 92% 30.05 in 10.0 mi Calm Calm - N/A   Clear
6:15 AM 58.6 °F 56.3 °F 92% 30.06 in 10.0 mi Calm Calm - N/A   Clear
6:35 AM 59.4 °F 56.5 °F 90% 30.06 in 10.0 mi Calm Calm - N/A   Mostly Cloudy
6:55 AM 59.9 °F 56.5 °F 88% 30.08 in 10.0 mi WSW 3.5 mph - N/A   Mostly Cloudy
7:14 AM 60.3 °F 56.7 °F 88% 30.08 in 10.0 mi WSW 4.6 mph - N/A   Scattered Clouds
7:35 AM 60.6 °F 57.2 °F 88% 30.08 in 10.0 mi Calm Calm - N/A   Scattered Clouds
7:55 AM 62.1 °F 57.9 °F 86% 30.08 in 10.0 mi Calm Calm - N/A   Clear
8:14 AM 63.7 °F 57.7 °F 81% 30.07 in 10.0 mi Calm Calm - N/A   Clear
8:35 AM 65.1 °F 58.3 °F 78% 30.07 in 10.0 mi Calm Calm - N/A   Scattered Clouds
8:55 AM 68.0 °F 58.8 °F 72% 30.07 in 10.0 mi South 3.5 mph - N/A   Scattered Clouds
9:15 AM 68.5 °F 58.5 °F 70% 30.07 in 10.0 mi South 3.5 mph - N/A   Clear
9:35 AM 68.2 °F 58.6 °F 71% 30.07 in 10.0 mi Calm Calm - N/A   Clear
9:55 AM 70.0 °F 59.0 °F 68% 30.06 in 10.0 mi South 3.5 mph - N/A   Clear
10:15 AM 72.1 °F 58.8 °F 63% 30.05 in 10.0 mi SW 4.6 mph - N/A   Clear
10:35 AM 73.8 °F 60.3 °F 63% 30.04 in 10.0 mi SW 4.6 mph - N/A   Clear
10:55 AM 75.0 °F 59.2 °F 58% 30.03 in 10.0 mi South 5.8 mph - N/A   Scattered Clouds
11:15 AM 75.4 °F 58.8 °F 56% 30.03 in 10.0 mi South 5.8 mph - N/A   Scattered Clouds
11:35 AM 75.4 °F 59.7 °F 58% 30.02 in 10.0 mi SSW 4.6 mph - N/A   Scattered Clouds
11:55 AM 76.3 °F 59.4 °F 56% 30.01 in 10.0 mi WSW 4.6 mph - N/A   Scattered Clouds
12:15 PM 77.0 °F 60.3 °F 56% 30.01 in 10.0 mi South 3.5 mph - N/A   Clear
12:34 PM 76.1 °F 59.5 °F 56% 30.01 in 10.0 mi WSW 8.1 mph - N/A   Scattered Clouds
12:55 PM 75.6 °F 60.8 °F 60% 30.01 in 10.0 mi WSW 9.2 mph - N/A   Scattered Clouds
1:15 PM 74.7 °F 60.6 °F 61% 30.01 in 10.0 mi SW 6.9 mph - N/A   Mostly Cloudy
1:34 PM 74.5 °F 61.0 °F 63% 30.01 in 10.0 mi SW 5.8 mph - N/A   Scattered Clouds
1:55 PM 75.2 °F 61.9 °F 63% 30.01 in 10.0 mi SW 4.6 mph - N/A   Scattered Clouds
2:15 PM 77.2 °F 62.1 °F 59% 30.01 in 10.0 mi SSW 8.1 mph - N/A   Clear
2:35 PM 76.1 °F 60.4 °F 58% 30.01 in 10.0 mi WSW 5.8 mph - N/A   Clear
2:55 PM 75.6 °F 61.7 °F 62% 30.01 in 10.0 mi WSW 8.1 mph - N/A   Clear
3:15 PM 75.4 °F 62.6 °F 64% 30.01 in 10.0 mi SSW 4.6 mph - N/A   Mostly Cloudy
3:35 PM 75.4 °F 61.5 °F 62% 30.00 in 10.0 mi SW 3.5 mph - N/A   Overcast
3:55 PM 75.2 °F 62.1 °F 64% 30.00 in 10.0 mi Calm Calm - N/A   Overcast
4:15 PM 74.7 °F 62.4 °F 66% 30.00 in 10.0 mi SW 3.5 mph - N/A   Overcast
4:35 PM 75.6 °F 63.0 °F 65% 29.99 in 10.0 mi WSW 4.6 mph - N/A   Mostly Cloudy
4:55 PM 76.3 °F 64.4 °F 67% 29.99 in 10.0 mi WSW 6.9 mph - N/A   Mostly Cloudy
5:14 PM 77.0 °F 64.6 °F 65% 29.99 in 10.0 mi WSW 10.4 mph - N/A   Overcast
5:35 PM 77.0 °F 62.6 °F 61% 29.98 in 10.0 mi WSW 12.7 mph - N/A   Mostly Cloudy
5:55 PM 76.5 °F 57.9 °F 53% 29.97 in 10.0 mi WSW 10.4 mph 17.3 mph N/A   Scattered Clouds
6:14 PM 76.1 °F 60.1 °F 57% 29.96 in 10.0 mi WSW 9.2 mph - N/A   Scattered Clouds
6:35 PM 74.3 °F 62.8 °F 67% 29.96 in 10.0 mi West 12.7 mph - N/A   Mostly Cloudy
6:55 PM 73.9 °F 64.0 °F 71% 29.96 in 10.0 mi WSW 12.7 mph - N/A   Overcast
7:15 PM 73.0 °F 62.4 °F 69% 29.96 in 10.0 mi SW 10.4 mph - N/A   Mostly Cloudy
7:35 PM 72.3 °F 62.8 °F 72% 29.96 in 10.0 mi WSW 9.2 mph - N/A   Scattered Clouds
7:55 PM 72.5 °F 63.5 °F 73% 29.96 in 10.0 mi SW 5.8 mph - N/A   Mostly Cloudy
8:15 PM 72.0 °F 63.0 °F 73% 29.95 in 10.0 mi SW 8.1 mph - N/A   Mostly Cloudy
8:35 PM 71.2 °F 62.1 °F 73% 29.95 in 10.0 mi SW 5.8 mph - N/A   Scattered Clouds
8:55 PM 70.9 °F 61.9 °F 73% 29.94 in 10.0 mi SSW 4.6 mph - N/A   Mostly Cloudy
9:15 PM 69.6 °F 62.6 °F 78% 29.93 in 10.0 mi SSE 3.5 mph - N/A   Scattered Clouds
9:35 PM 68.7 °F 63.0 °F 82% 29.92 in 10.0 mi SSE 5.8 mph - N/A   Clear
9:54 PM 68.0 °F 62.6 °F 83% 29.92 in 10.0 mi SSE 3.5 mph - N/A   Clear
10:15 PM 67.5 °F 62.2 °F 83% 29.93 in 10.0 mi South 4.6 mph - N/A   Clear
10:35 PM 67.3 °F 62.6 °F 85% 29.93 in 10.0 mi Calm Calm - N/A   Clear
10:54 PM 67.1 °F 62.6 °F 85% 29.92 in 10.0 mi South 5.8 mph - N/A   Clear
11:15 PM 66.9 °F 62.6 °F 86% 29.92 in 10.0 mi South 5.8 mph - N/A   Clear
11:35 PM 66.7 °F 62.2 °F 85% 29.90 in 10.0 mi South 8.1 mph - N/A   Clear
11:55 PM 67.1 °F 62.6 °F 85% 29.92 in 10.0 mi South 6.9 mph - N/A   Clear